Location: *
(58.4167°N, 22.5000°E)
Time: 21:34:35
(UTC+00:00)

Cosmos 2239 Rocket - Pass Details

Date: 22 September 2019
Orbit: 954 x 992 km, 82.9° (Epoch: 15 October)

Event Time Altitude Azimuth Distance (km) Brightness Sun altitude
Rises 18:55:34 0° 347° (NNW) 3,707 8.3 -18.7°
Reaches altitude 10° 18:58:06 10° 348° (NNW) 2,750 7.5 -19.0°
Maximum altitude 19:04:26 84° 77° (ENE) 990 4.4 -19.7°
Enters shadow 19:08:01 27° 164° (SSE) 1,758 5.4 -20.1°
